Corlu, Turkey

3:22 PM +03 on May 24, 2018 (GMT +0300)
Corlu Air Base

Weather History for LTBU - August, 2014

Change the Weather History Date:

Saturday, August 23, 2014

  Actual Average (LTBA) Record (LTBA)
Temperature  
Mean Temperature 78 °F -  
Max Temperature 87 °F 82 °F 98 °F (2012)
Min Temperature 69 °F 69 °F 61 °F (2017)
Cooling Degree Days 13    
Growing Degree Days 28 (Base 50)    
Moisture  
Dew Point 69 °F    
Average Humidity 79    
Maximum Humidity 100    
Minimum Humidity 49    
Precipitation  
Precipitation 0.00 in - - ()
Sea Level Pressure  
Sea Level Pressure 29.99 in    
Wind  
Wind Speed 12 mph ()    
Max Wind Speed 21 mph    
Max Gust Speed -    
Visibility 5.1 miles    
Events      
Averages and records for this station are not official NWS values.
T = Trace of Precipitation, MM = Missing Value Source: Averaged Metar Reports

Daily Weather History Graph

Daily Weather History Graph

Search for Another Location

Airport or City:

Astronomy

Aug. 23, 2014 Rise Set
Actual Time 6:25 AM EEST 7:55 PM EEST
Civil Twilight 5:56 AM EEST 8:24 PM EEST
Nautical Twilight 5:21 AM EEST 8:59 PM EEST
Astronomical Twilight 4:44 AM EEST 9:36 PM EEST
Moon 4:23 AM EEST (8/23) 6:29 PM EEST (8/23)
Length of Visible Light 14h 27m
Length of Day
13h 30m
Waning Crescent, 4% of the Moon is Illuminated
Aug 23
Waning Crescent
Aug 25
New
Sep 2
First Quarter
Sep 9
Full
Sep 16
Last Quarter

Hourly Weather History & Observations

Time (EEST) Temp. Heat Index Dew Point Humidity Pressure Visibility Wind Dir Wind Speed Gust Speed Precip Events Conditions
12:20 AM 71.6 °F - 69.8 °F 94% 30.01 in - NE 11.5 mph - N/A   Clear
12:50 AM 71.6 °F - 69.8 °F 94% 30.01 in - NNE 12.7 mph - N/A   Clear
1:20 AM 71.6 °F - 69.8 °F 94% 30.01 in - NNE 12.7 mph - N/A   Clear
1:50 AM 71.6 °F - 69.8 °F 94% 30.01 in - NNE 9.2 mph - N/A   Clear
2:20 AM 69.8 °F - 69.8 °F 100% 30.01 in - NE 10.4 mph - N/A   Clear
2:50 AM 69.8 °F - 69.8 °F 100% 29.98 in - NNE 9.2 mph - N/A   Clear
3:20 AM 69.8 °F - 69.8 °F 100% 30.01 in 5.0 mi NNE 9.2 mph - N/A   Unknown
3:50 AM 69.8 °F - 69.8 °F 100% 30.01 in 5.0 mi NNE 9.2 mph - N/A   Unknown
4:20 AM 69.8 °F - 69.8 °F 100% 29.98 in 4.3 mi NNE 11.5 mph - N/A   Unknown
4:50 AM 69.8 °F - 69.8 °F 100% 29.98 in 3.7 mi NNE 10.4 mph - N/A   Unknown
5:20 AM 69.8 °F - 69.8 °F 100% 29.98 in 5.0 mi NE 10.4 mph - N/A   Unknown
5:50 AM 71.6 °F - 71.6 °F 100% 30.01 in 3.7 mi NNE 11.5 mph - N/A   Unknown
6:07 AM 71.6 °F - 69.8 °F 94% 29.98 in 2.5 mi NNE 11.5 mph - N/A   Mist
6:20 AM 71.6 °F - 69.8 °F 94% 30.01 in 2.5 mi NNE 11.5 mph - N/A   Mist
6:50 AM 71.6 °F - 69.8 °F 94% 29.98 in 2.8 mi NNE 12.7 mph - N/A   Mist
7:20 AM 71.6 °F - 71.6 °F 100% 29.98 in 3.7 mi NNE 12.7 mph - N/A   Unknown
7:50 AM 73.4 °F - 71.6 °F 94% 30.01 in 5.0 mi NNE 12.7 mph - N/A   Partly Cloudy
8:20 AM 75.2 °F - 71.6 °F 89% 30.01 in - NNE 15.0 mph - N/A   Clear
8:50 AM 77.0 °F - 69.8 °F 78% 30.01 in - NE 16.1 mph - N/A   Clear
9:20 AM 78.8 °F - 69.8 °F 74% 30.01 in - NE 16.1 mph - N/A   Clear
9:50 AM 80.6 °F 83.9 °F 69.8 °F 70% 30.01 in - NE 13.8 mph - N/A   Clear
10:20 AM 80.6 °F 83.9 °F 69.8 °F 70% 30.01 in - ENE 15.0 mph - N/A   Clear
10:50 AM 84.2 °F 88.4 °F 69.8 °F 62% 30.01 in - NE 13.8 mph - N/A   Clear
11:20 AM 84.2 °F 88.4 °F 69.8 °F 62% 30.01 in - ENE 13.8 mph - N/A   Clear
11:50 AM 86.0 °F 90.4 °F 69.8 °F 58% 30.01 in 6.2 mi NE 12.7 mph - N/A   Partly Cloudy
12:20 PM 86.0 °F 90.4 °F 69.8 °F 58% 30.01 in 6.2 mi NE 15.0 mph - N/A   Partly Cloudy
12:50 PM 86.0 °F 89.4 °F 68.0 °F 55% 30.01 in 6.2 mi NE 13.8 mph - N/A   Partly Cloudy
1:20 PM 86.0 °F 88.2 °F 66.2 °F 51% 29.98 in 6.2 mi ENE 13.8 mph - N/A   Partly Cloudy
1:50 PM 87.8 °F 91.4 °F 68.0 °F 52% 29.98 in 6.2 mi NE 12.7 mph - N/A   Partly Cloudy
2:20 PM 87.8 °F 90.4 °F 66.2 °F 49% 29.98 in - NE 12.7 mph - N/A   Clear
2:50 PM 87.8 °F 90.4 °F 66.2 °F 49% 29.98 in 6.2 mi NE 15.0 mph - N/A   Partly Cloudy
3:20 PM 87.8 °F 90.4 °F 66.2 °F 49% 29.98 in 6.2 mi NE 15.0 mph - N/A   Partly Cloudy
3:50 PM 86.0 °F 88.2 °F 66.2 °F 51% 29.95 in 6.2 mi ENE 15.0 mph - N/A   Partly Cloudy
4:20 PM 86.0 °F 89.4 °F 68.0 °F 55% 29.95 in 6.2 mi NE 16.1 mph - N/A   Partly Cloudy
4:50 PM 84.2 °F 87.3 °F 68.0 °F 58% 29.95 in 6.2 mi NE 15.0 mph - N/A   Partly Cloudy
5:20 PM 84.2 °F 88.4 °F 69.8 °F 62% 29.98 in 6.2 mi NE 17.3 mph - N/A   Partly Cloudy
5:50 PM 82.4 °F 85.4 °F 68.0 °F 62% 29.98 in 6.2 mi NE 20.7 mph - N/A   Partly Cloudy
6:20 PM 80.6 °F 83.2 °F 68.0 °F 65% 29.95 in - NE 20.7 mph - N/A   Clear
6:50 PM 78.8 °F - 69.8 °F 74% 29.95 in - NE 18.4 mph - N/A   Clear
7:20 PM 77.0 °F - 68.0 °F 74% 29.95 in - NE 17.3 mph - N/A   Clear
7:50 PM 75.2 °F - 68.0 °F 78% 29.95 in - NE 18.4 mph - N/A   Clear
8:20 PM 75.2 °F - 68.0 °F 78% 29.95 in - NE 16.1 mph - N/A   Clear
8:50 PM 73.4 °F - 69.8 °F 88% 29.98 in - ENE 11.5 mph - N/A   Clear
9:20 PM 73.4 °F - 69.8 °F 88% 29.98 in - ENE 11.5 mph - N/A   Clear
9:50 PM 73.4 °F - 69.8 °F 88% 29.95 in - ENE 12.7 mph - N/A   Clear
10:20 PM 73.4 °F - 69.8 °F 88% 29.98 in - ENE 12.7 mph - N/A   Clear
10:50 PM 73.4 °F - 69.8 °F 88% 29.98 in - ENE 12.7 mph - N/A   Clear
11:20 PM 71.6 °F - 69.8 °F 94% 29.98 in - NE 12.7 mph - N/A   Clear
11:50 PM 71.6 °F - 69.8 °F 94% 29.95 in - NE 16.1 mph - N/A   Clear